Location: Casteau
(50.5142°N, 4.0161°E)
Time: 02:41:30
(UTC+00:00)

Explorer 11/Cluster Stage 4 - Pass Details

Date: 09 August 2021
Orbit: 467 x 1257 km, 28.8° (Epoch: 18 September)

Event Time Altitude Azimuth Distance (km) Brightness Sun altitude
Rises 08:20:45 0° 234° (SW) 3,761 9.8 35.8°
Reaches altitude 10° 08:25:45 10° 204° (SSW) 2,991 9.6 36.5°
Maximum altitude 08:27:55 11° 187° (S) 2,948 9.8 36.8°
Drops below altitude 10° 08:30:10 10° 170° (S) 3,111 10.1 37.2°
Sets 08:35:44 0° 140° (SE) 4,169 11.1 38.0°
